HXA9790 ZSZS-ZUGY

Flight info

Callsign HXA9790
Flight time 2h 40m
Altitude 30100
Route PONAB W13 LASAN G327 JTN W583 SUF W167 SASAN R343 ESBAG W581 SNQ W546 OREVO W164 VILID V65 IKUBA V106 GUGAM A581 MEMAG
Aircraft A320/M-SDE2E3FGILRWXY/LB1

Departure

Time 2026-05-07 06:28
Airport Zhoushan Putuoshan International Airport (ZSZS)

Arrival

Time 2026-05-07 09:09
Airport Guiyang Longdongbao International Airport (ZUGY)
Time Latitude Longitude Altitude Speed Heading
2026-05-07 06:13 29.93605 122.35836 38 ft 0 kts 266°
2026-05-07 06:18 29.93607 122.35860 37 ft 2 kts 268°
2026-05-07 06:19 29.93607 122.35872 37 ft 2 kts 271°
2026-05-07 06:19 29.93608 122.35891 38 ft 2 kts 272°
2026-05-07 06:19 29.93607 122.35910 39 ft 2 kts 277°
2026-05-07 06:19 29.93604 122.35928 38 ft 2 kts 302°
2026-05-07 06:20 29.93593 122.35939 39 ft 1 kts 357°
2026-05-07 06:20 29.93591 122.35939 39 ft 0 kts 355°
2026-05-07 06:22 29.93600 122.35938 39 ft 3 kts 355°
2026-05-07 06:22 29.93635 122.35935 39 ft 7 kts 355°
2026-05-07 06:23 29.93690 122.35929 43 ft 9 kts 355°
2026-05-07 06:23 29.93752 122.35923 45 ft 8 kts 355°
2026-05-07 06:23 29.93795 122.35924 46 ft 4 kts 26°
2026-05-07 06:23 29.93802 122.35933 47 ft 3 kts 49°
2026-05-07 06:24 29.93812 122.35949 46 ft 4 kts 59°
2026-05-07 06:24 29.93834 122.35984 49 ft 4 kts 44°
2026-05-07 06:24 29.93847 122.35991 51 ft 4 kts 16°
2026-05-07 06:24 29.93905 122.35989 50 ft 10 kts 355°
2026-05-07 06:25 29.93972 122.35983 48 ft 9 kts 355°
2026-05-07 06:25 29.94030 122.35977 49 ft 8 kts 354°
2026-05-07 06:25 29.94075 122.35972 50 ft 5 kts 354°
2026-05-07 06:25 29.94130 122.35966 51 ft 11 kts 354°
2026-05-07 06:26 29.94222 122.35955 51 ft 16 kts 354°
2026-05-07 06:26 29.94362 122.35939 47 ft 24 kts 354°
2026-05-07 06:26 29.94510 122.35925 45 ft 14 kts
2026-05-07 06:26 29.94533 122.35985 47 ft 6 kts 81°
2026-05-07 06:27 29.94536 122.36024 48 ft 7 kts 86°
2026-05-07 06:27 29.94520 122.36108 47 ft 14 kts 145°
2026-05-07 06:27 29.94478 122.36119 51 ft 0 kts 176°
2026-05-07 06:27 29.94358 122.36132 53 ft 52 kts 175°
2026-05-07 06:28 29.93771 122.36193 52 ft 115 kts 175°
2026-05-07 06:28 29.92792 122.36291 84 ft 162 kts 175°
2026-05-07 06:28 29.91705 122.36334 859 ft 150 kts 192°
2026-05-07 06:28 29.90831 122.35721 1525 ft 154 kts 236°
2026-05-07 06:29 29.90525 122.34555 2104 ft 155 kts 276°
2026-05-07 06:29 29.90880 122.33409 2633 ft 155 kts 309°
2026-05-07 06:29 29.91775 122.32738 3136 ft 159 kts 345°
2026-05-07 06:29 29.92921 122.32877 3440 ft 181 kts 26°
2026-05-07 06:30 29.93744 122.34029 3735 ft 199 kts 75°
2026-05-07 06:30 29.93696 122.35630 4223 ft 204 kts 99°
2026-05-07 06:30 29.93764 122.37245 4692 ft 207 kts 65°
2026-05-07 06:30 29.94769 122.38457 4899 ft 222 kts 20°
2026-05-07 06:31 29.96330 122.38584 5123 ft 238 kts 340°
2026-05-07 06:31 29.97787 122.37589 5435 ft 258 kts 322°
2026-05-07 06:31 29.99444 122.36637 6045 ft 271 kts 345°
2026-05-07 06:31 30.01338 122.36414 6776 ft 277 kts 358°
2026-05-07 06:32 30.03282 122.36533 7508 ft 283 kts
2026-05-07 06:32 30.05255 122.36772 8214 ft 288 kts
2026-05-07 06:32 30.07266 122.37027 8911 ft 293 kts
2026-05-07 06:32 30.09296 122.36938 9578 ft 293 kts 342°
2026-05-07 06:33 30.11139 122.35992 10207 ft 290 kts 320°
2026-05-07 06:33 30.12746 122.34475 10461 ft 310 kts 316°
2026-05-07 06:33 30.14439 122.32794 10592 ft 332 kts 316°
2026-05-07 06:33 30.16227 122.30991 10866 ft 348 kts 316°
2026-05-07 06:34 30.18066 122.29139 11403 ft 353 kts 316°
2026-05-07 06:34 30.19930 122.27272 12037 ft 356 kts 316°
2026-05-07 06:34 30.21814 122.25393 12667 ft 359 kts 316°
2026-05-07 06:34 30.23713 122.23503 13293 ft 362 kts 316°
2026-05-07 06:35 30.25630 122.21598 13889 ft 365 kts 316°
2026-05-07 06:35 30.27565 122.19671 14423 ft 368 kts 316°
2026-05-07 06:35 30.29510 122.17730 14955 ft 371 kts 316°
2026-05-07 06:35 30.31471 122.15774 15476 ft 373 kts 315°
2026-05-07 06:36 30.33419 122.13834 15991 ft 376 kts 315°
2026-05-07 06:36 30.35412 122.11848 16492 ft 379 kts 315°
2026-05-07 06:36 30.37416 122.09845 17007 ft 382 kts 315°
2026-05-07 06:36 30.39425 122.07830 17499 ft 384 kts 315°
2026-05-07 06:37 30.41454 122.05795 17988 ft 387 kts 315°
2026-05-07 06:37 30.43500 122.03743 18411 ft 390 kts 315°
2026-05-07 06:37 30.45562 122.01679 18830 ft 392 kts 315°
2026-05-07 06:37 30.47626 121.99612 19277 ft 393 kts 315°
2026-05-07 06:38 30.49704 121.97531 19699 ft 395 kts 315°
2026-05-07 06:38 30.51789 121.95440 20114 ft 397 kts 315°
2026-05-07 06:38 30.53881 121.93342 20518 ft 399 kts 315°
2026-05-07 06:38 30.55986 121.91229 20919 ft 401 kts 315°
2026-05-07 06:39 30.58097 121.89107 21324 ft 403 kts 315°
2026-05-07 06:39 30.60219 121.86974 21705 ft 404 kts 315°
2026-05-07 06:39 30.62353 121.84828 22075 ft 406 kts 315°
2026-05-07 06:39 30.64497 121.82673 22457 ft 408 kts 315°
2026-05-07 06:40 30.66650 121.80507 22834 ft 410 kts 315°
2026-05-07 06:40 30.68814 121.78332 23202 ft 412 kts 314°
2026-05-07 06:40 30.70983 121.76148 23540 ft 414 kts 314°
2026-05-07 06:40 30.73168 121.73942 23824 ft 416 kts 314°
2026-05-07 06:41 30.75358 121.71728 24108 ft 418 kts 314°
2026-05-07 06:41 30.77557 121.69502 24403 ft 420 kts 314°
2026-05-07 06:41 30.79767 121.67267 24694 ft 421 kts 314°
2026-05-07 06:41 30.81953 121.65057 24973 ft 423 kts 315°
2026-05-07 06:42 30.84209 121.62777 25252 ft 425 kts 315°
2026-05-07 06:42 30.86410 121.60546 25524 ft 427 kts 315°
2026-05-07 06:42 30.88655 121.58270 25814 ft 428 kts 315°
2026-05-07 06:42 30.90911 121.55981 26097 ft 430 kts 315°
2026-05-07 06:43 30.93175 121.53686 26386 ft 432 kts 315°
2026-05-07 06:43 30.95444 121.51383 26675 ft 434 kts 315°
2026-05-07 06:43 30.97724 121.49063 26936 ft 435 kts 315°
2026-05-07 06:43 31.00006 121.46739 27191 ft 437 kts 315°
2026-05-07 06:44 31.02303 121.44399 27448 ft 439 kts 315°
2026-05-07 06:44 31.04606 121.42056 27696 ft 441 kts 315°
2026-05-07 06:44 31.06926 121.39695 27944 ft 442 kts 315°
2026-05-07 06:44 31.09244 121.37330 28187 ft 444 kts 315°
2026-05-07 06:45 31.11428 121.34793 28442 ft 442 kts 307°
2026-05-07 06:45 31.13213 121.31893 28642 ft 441 kts 298°
2026-05-07 06:45 31.14618 121.28716 28877 ft 441 kts 294°
2026-05-07 06:45 31.15958 121.25487 29110 ft 442 kts 294°
2026-05-07 06:46 31.17299 121.22256 29412 ft 442 kts 294°
2026-05-07 06:46 31.18643 121.19018 29680 ft 443 kts 294°
2026-05-07 06:46 31.19989 121.15777 29937 ft 444 kts 294°
2026-05-07 06:46 31.21332 121.12545 29997 ft 441 kts 294°
2026-05-07 06:47 31.23994 121.06128 29988 ft 438 kts 294°
2026-05-07 06:47 31.26640 120.99721 29987 ft 438 kts 294°
2026-05-07 06:48 31.29273 120.93353 29984 ft 438 kts 294°
2026-05-07 06:48 31.31924 120.86942 29984 ft 438 kts 294°
2026-05-07 06:49 31.34568 120.80517 29986 ft 438 kts 293°
2026-05-07 06:49 31.37208 120.74091 29985 ft 438 kts 293°
2026-05-07 06:50 31.39840 120.67666 30004 ft 438 kts 293°
2026-05-07 06:50 31.42471 120.61228 29989 ft 438 kts 293°
2026-05-07 06:51 31.45097 120.54796 29988 ft 437 kts 293°
2026-05-07 06:51 31.47719 120.48369 29988 ft 437 kts 293°
2026-05-07 06:52 31.50731 120.42183 29989 ft 441 kts 306°
2026-05-07 06:52 31.54927 120.36904 29993 ft 442 kts 308°
2026-05-07 06:53 31.58122 120.30938 29994 ft 433 kts 289°
2026-05-07 06:53 31.59342 120.24104 29989 ft 428 kts 272°
2026-05-07 06:54 31.59688 120.17123 29986 ft 429 kts 272°
2026-05-07 06:54 31.60033 120.10130 30013 ft 430 kts 272°
2026-05-07 06:55 31.60367 120.03131 30011 ft 430 kts 271°
2026-05-07 06:55 31.60702 119.96134 30008 ft 430 kts 272°
2026-05-07 06:56 31.61037 119.89128 30006 ft 430 kts 271°
2026-05-07 06:56 31.61362 119.82125 30011 ft 430 kts 271°
2026-05-07 06:57 31.61682 119.75116 30018 ft 430 kts 271°
2026-05-07 06:57 31.61995 119.68109 30027 ft 429 kts 271°
2026-05-07 06:58 31.62461 119.61120 30030 ft 430 kts 274°
2026-05-07 06:58 31.63124 119.54145 30036 ft 430 kts 274°
2026-05-07 06:59 31.63785 119.47190 30066 ft 427 kts 274°
2026-05-07 06:59 31.64390 119.40271 30061 ft 425 kts 274°
2026-05-07 07:00 31.64958 119.33393 30066 ft 423 kts 273°
2026-05-07 07:00 31.65525 119.26604 30055 ft 422 kts 274°
2026-05-07 07:01 31.66104 119.19732 30047 ft 421 kts 274°
2026-05-07 07:01 31.66674 119.12898 30045 ft 421 kts 274°
2026-05-07 07:02 31.67238 119.06053 30058 ft 421 kts 274°
2026-05-07 07:02 31.67804 118.99213 30065 ft 421 kts 274°
2026-05-07 07:03 31.67779 118.92374 30075 ft 419 kts 266°
2026-05-07 07:03 31.67418 118.85563 30079 ft 418 kts 266°
2026-05-07 07:04 31.67050 118.78767 30080 ft 417 kts 266°
2026-05-07 07:04 31.66742 118.73124 30076 ft 416 kts 266°
2026-05-07 07:05 31.66540 118.66333 30073 ft 416 kts 269°
2026-05-07 07:05 31.66615 118.59546 30067 ft 416 kts 271°
2026-05-07 07:06 31.66707 118.52753 30065 ft 416 kts 270°
2026-05-07 07:06 31.66722 118.45969 30064 ft 416 kts 270°
2026-05-07 07:07 31.66702 118.39179 30064 ft 415 kts 270°
2026-05-07 07:07 31.66691 118.32409 30077 ft 414 kts 269°
2026-05-07 07:08 31.66684 118.25659 30080 ft 413 kts 269°
2026-05-07 07:08 31.66668 118.18916 30064 ft 412 kts 270°
2026-05-07 07:09 31.66168 118.12207 30067 ft 413 kts 264°
2026-05-07 07:09 31.65532 118.05561 30072 ft 412 kts 264°
2026-05-07 07:10 31.64890 117.98876 30075 ft 412 kts 264°
2026-05-07 07:10 31.64246 117.92202 30077 ft 412 kts 264°
2026-05-07 07:11 31.63598 117.85525 30076 ft 412 kts 264°
2026-05-07 07:11 31.62948 117.78860 30077 ft 411 kts 264°
2026-05-07 07:12 31.62288 117.72190 30075 ft 411 kts 264°
2026-05-07 07:12 31.61633 117.65529 30074 ft 410 kts 264°
2026-05-07 07:13 31.60972 117.58883 30078 ft 410 kts 264°
2026-05-07 07:13 31.59912 117.52303 30076 ft 411 kts 259°
2026-05-07 07:14 31.58749 117.45747 30070 ft 410 kts 260°
2026-05-07 07:14 31.57582 117.39194 30076 ft 410 kts 260°
2026-05-07 07:15 31.56411 117.32653 30088 ft 410 kts 260°
2026-05-07 07:15 31.54464 117.26366 30087 ft 415 kts 244°
2026-05-07 07:16 31.51548 117.20513 30096 ft 416 kts 243°
2026-05-07 07:16 31.48628 117.14659 30099 ft 416 kts 244°
2026-05-07 07:17 31.45736 117.08843 30116 ft 416 kts 244°
2026-05-07 07:17 31.42822 117.02998 30088 ft 416 kts 243°
2026-05-07 07:18 31.39894 116.97150 30092 ft 417 kts 243°
2026-05-07 07:18 31.36955 116.91297 30110 ft 417 kts 243°
2026-05-07 07:19 31.34015 116.85444 30121 ft 417 kts 243°
2026-05-07 07:19 31.31073 116.79585 30123 ft 417 kts 243°
2026-05-07 07:20 31.28139 116.73728 30138 ft 416 kts 243°
2026-05-07 07:20 31.25195 116.67884 30127 ft 417 kts 243°
2026-05-07 07:21 31.22243 116.62046 30134 ft 416 kts 243°
2026-05-07 07:21 31.19299 116.56224 30134 ft 416 kts 242°
2026-05-07 07:22 31.16351 116.50403 30138 ft 416 kts 242°
2026-05-07 07:22 31.13406 116.44592 30147 ft 416 kts 243°
2026-05-07 07:23 31.10455 116.38785 30127 ft 414 kts 243°
2026-05-07 07:23 31.07524 116.33014 30123 ft 413 kts 243°
2026-05-07 07:24 31.04605 116.27280 30110 ft 413 kts 243°
2026-05-07 07:24 31.01661 116.21513 30123 ft 414 kts 242°
2026-05-07 07:25 30.97233 116.12851 30112 ft 415 kts 242°
2026-05-07 07:26 30.94268 116.07068 30130 ft 416 kts 242°
2026-05-07 07:26 30.91307 116.01279 30107 ft 416 kts 243°
2026-05-07 07:27 30.88339 115.95497 30121 ft 416 kts 243°
2026-05-07 07:27 30.85645 115.89588 30126 ft 411 kts 253°
2026-05-07 07:28 30.84343 115.83158 30112 ft 408 kts 260°
2026-05-07 07:28 30.83197 115.76677 30116 ft 409 kts 260°
2026-05-07 07:29 30.82037 115.70204 30118 ft 409 kts 260°
2026-05-07 07:29 30.80876 115.63721 30123 ft 409 kts 260°
2026-05-07 07:30 30.79720 115.57254 30112 ft 408 kts 260°
2026-05-07 07:30 30.78556 115.50785 30115 ft 408 kts 260°
2026-05-07 07:31 30.77395 115.44331 30112 ft 406 kts 260°
2026-05-07 07:31 30.76248 115.37958 30121 ft 404 kts 260°
2026-05-07 07:32 30.75089 115.31582 30116 ft 403 kts 260°
2026-05-07 07:32 30.73931 115.25208 30103 ft 403 kts 260°
2026-05-07 07:33 30.72763 115.18826 30093 ft 404 kts 260°
2026-05-07 07:33 30.71592 115.12434 30097 ft 404 kts 260°
2026-05-07 07:34 30.70415 115.06031 30101 ft 405 kts 260°
2026-05-07 07:34 30.69246 114.99629 30098 ft 405 kts 260°
2026-05-07 07:35 30.68071 114.93244 30112 ft 404 kts 259°
2026-05-07 07:35 30.66888 114.86861 30115 ft 404 kts 259°
2026-05-07 07:36 30.65710 114.80497 30096 ft 403 kts 259°
2026-05-07 07:36 30.64531 114.74143 30104 ft 402 kts 259°
2026-05-07 07:37 30.63344 114.67811 30096 ft 401 kts 259°
2026-05-07 07:37 30.62160 114.61480 30103 ft 401 kts 259°
2026-05-07 07:38 30.60974 114.55142 30110 ft 402 kts 259°
2026-05-07 07:38 30.59783 114.48809 30111 ft 401 kts 259°
2026-05-07 07:39 30.58594 114.42489 30116 ft 401 kts 259°
2026-05-07 07:39 30.57401 114.36164 30122 ft 401 kts 259°
2026-05-07 07:40 30.56203 114.29839 30115 ft 401 kts 259°
2026-05-07 07:40 30.54997 114.23520 30119 ft 401 kts 259°
2026-05-07 07:41 30.53504 114.17325 30086 ft 403 kts 252°
2026-05-07 07:41 30.51556 114.11213 30092 ft 404 kts 252°
2026-05-07 07:42 30.49608 114.05089 30096 ft 405 kts 252°
2026-05-07 07:42 30.47652 113.98948 30102 ft 406 kts 252°
2026-05-07 07:43 30.45681 113.92798 30103 ft 407 kts 252°
2026-05-07 07:43 30.43708 113.86641 30105 ft 408 kts 252°
2026-05-07 07:44 30.41724 113.80488 30108 ft 408 kts 252°
2026-05-07 07:44 30.39746 113.74330 30127 ft 408 kts 252°
2026-05-07 07:45 30.37768 113.68168 30117 ft 408 kts 252°
2026-05-07 07:45 30.35778 113.62006 30098 ft 409 kts 252°
2026-05-07 07:46 30.33780 113.55845 30101 ft 409 kts 252°
2026-05-07 07:46 30.31776 113.49671 30112 ft 409 kts 252°
2026-05-07 07:47 30.29788 113.43542 30114 ft 410 kts 252°
2026-05-07 07:47 30.27786 113.37369 30115 ft 410 kts 252°
2026-05-07 07:48 30.25769 113.31178 30119 ft 411 kts 252°
2026-05-07 07:48 30.23747 113.24999 30120 ft 411 kts 252°
2026-05-07 07:49 30.21668 113.18836 30123 ft 413 kts 247°
2026-05-07 07:49 30.19175 113.14051 30105 ft 416 kts 242°
2026-05-07 07:50 30.15559 113.07491 30114 ft 417 kts 242°
2026-05-07 07:50 30.12968 113.02791 30113 ft 417 kts 241°
2026-05-07 07:51 30.09842 112.97133 30118 ft 418 kts 241°
2026-05-07 07:51 30.06711 112.91482 30119 ft 418 kts 241°
2026-05-07 07:52 30.03574 112.85821 30124 ft 418 kts 241°
2026-05-07 07:52 30.00442 112.80163 30108 ft 418 kts 241°
2026-05-07 07:53 29.97308 112.74504 30105 ft 419 kts 241°
2026-05-07 07:53 29.94151 112.68830 30115 ft 421 kts 241°
2026-05-07 07:54 29.90981 112.63147 30117 ft 421 kts 241°
2026-05-07 07:54 29.87807 112.57462 30126 ft 422 kts 241°
2026-05-07 07:55 29.84654 112.51815 30130 ft 422 kts 241°
2026-05-07 07:55 29.81480 112.46124 30138 ft 422 kts 241°
2026-05-07 07:56 29.78303 112.40442 30131 ft 422 kts 241°
2026-05-07 07:56 29.75114 112.34756 30128 ft 423 kts 241°
2026-05-07 07:57 29.71923 112.29075 30135 ft 423 kts 240°
2026-05-07 07:57 29.68718 112.23404 30132 ft 423 kts 240°
2026-05-07 07:58 29.65500 112.17736 30137 ft 423 kts 240°
2026-05-07 07:58 29.62281 112.12071 30142 ft 423 kts 240°
2026-05-07 07:59 29.59063 112.06407 30125 ft 423 kts 240°
2026-05-07 07:59 29.55842 112.00735 30131 ft 424 kts 240°
2026-05-07 08:00 29.52614 111.95068 30130 ft 424 kts 240°
2026-05-07 08:00 29.49381 111.89388 30145 ft 425 kts 240°
2026-05-07 08:01 29.46145 111.83714 30146 ft 425 kts 240°
2026-05-07 08:01 29.42909 111.78056 30155 ft 425 kts 240°
2026-05-07 08:02 29.39661 111.72391 30154 ft 424 kts 240°
2026-05-07 08:02 29.36421 111.66737 30154 ft 424 kts 240°
2026-05-07 08:03 29.33896 111.60693 30149 ft 420 kts 250°
2026-05-07 08:03 29.31751 111.54472 30150 ft 420 kts 250°
2026-05-07 08:04 29.29587 111.48245 30154 ft 420 kts 250°
2026-05-07 08:04 29.27420 111.42025 30154 ft 420 kts 250°
2026-05-07 08:05 29.25252 111.35818 30161 ft 420 kts 250°
2026-05-07 08:05 29.23075 111.29611 30161 ft 420 kts 250°
2026-05-07 08:06 29.20916 111.23442 30139 ft 420 kts 250°
2026-05-07 08:06 29.18743 111.17239 30146 ft 420 kts 250°
2026-05-07 08:07 29.16569 111.11037 30167 ft 420 kts 249°
2026-05-07 08:07 29.14395 111.04851 30169 ft 419 kts 250°
2026-05-07 08:08 29.12215 110.98665 30161 ft 419 kts 250°
2026-05-07 08:08 29.10027 110.92484 30161 ft 419 kts 250°
2026-05-07 08:09 29.07839 110.86307 30169 ft 419 kts 249°
2026-05-07 08:09 29.05652 110.80133 30167 ft 419 kts 249°
2026-05-07 08:10 29.03465 110.73960 30178 ft 419 kts 249°
2026-05-07 08:10 29.01282 110.67788 30155 ft 419 kts 249°
2026-05-07 08:11 28.99122 110.61602 30151 ft 420 kts 249°
2026-05-07 08:11 28.96957 110.55402 30152 ft 420 kts 249°
2026-05-07 08:12 28.94784 110.49200 30157 ft 420 kts 249°
2026-05-07 08:12 28.92605 110.43005 30158 ft 421 kts 249°
2026-05-07 08:13 28.90423 110.36803 30152 ft 421 kts 249°
2026-05-07 08:13 28.88231 110.30599 30157 ft 421 kts 249°
2026-05-07 08:14 28.86035 110.24395 30155 ft 421 kts 249°
2026-05-07 08:14 28.83851 110.18236 30146 ft 421 kts 249°
2026-05-07 08:15 28.81649 110.12032 30150 ft 422 kts 249°
2026-05-07 08:15 28.79444 110.05818 30154 ft 423 kts 249°
2026-05-07 08:16 28.77229 109.99601 30158 ft 424 kts 249°
2026-05-07 08:16 28.75010 109.93373 30157 ft 424 kts 249°
2026-05-07 08:17 28.72784 109.87151 30155 ft 424 kts 248°
2026-05-07 08:17 28.70557 109.80933 30155 ft 424 kts 248°
2026-05-07 08:18 28.68323 109.74717 30147 ft 424 kts 249°
2026-05-07 08:18 28.66085 109.68500 30149 ft 424 kts 248°
2026-05-07 08:19 28.63864 109.62262 30139 ft 424 kts 249°
2026-05-07 08:19 28.61732 109.55985 30141 ft 425 kts 250°
2026-05-07 08:20 28.59616 109.49700 30137 ft 425 kts 250°
2026-05-07 08:20 28.57370 109.43513 30139 ft 426 kts 245°
2026-05-07 08:21 28.54703 109.37475 30139 ft 427 kts 245°
2026-05-07 08:21 28.52042 109.31433 30144 ft 427 kts 245°
2026-05-07 08:22 28.49383 109.25373 30151 ft 428 kts 245°
2026-05-07 08:22 28.46715 109.19323 30150 ft 427 kts 245°
2026-05-07 08:23 28.44052 109.13291 30138 ft 428 kts 245°
2026-05-07 08:23 28.41382 109.07293 30139 ft 428 kts 245°
2026-05-07 08:24 28.38659 109.01224 30144 ft 429 kts 245°
2026-05-07 08:24 28.35954 108.95182 30145 ft 429 kts 245°
2026-05-07 08:25 28.33277 108.89189 30144 ft 429 kts 245°
2026-05-07 08:25 28.30567 108.83143 30154 ft 429 kts 245°
2026-05-07 08:26 28.26506 108.74086 30161 ft 429 kts 245°
2026-05-07 08:26 28.23817 108.68056 30164 ft 428 kts 245°
2026-05-07 08:27 28.21130 108.62044 30149 ft 427 kts 245°
2026-05-07 08:27 28.18441 108.56040 30142 ft 427 kts 245°
2026-05-07 08:28 28.15749 108.50036 30139 ft 427 kts 245°
2026-05-07 08:28 28.13613 108.45284 30146 ft 427 kts 245°
2026-05-07 08:35 28.12790 108.43539 30184 ft 427 kts 244°
2026-05-07 08:37 28.12290 108.42451 30293 ft 424 kts 245°
2026-05-07 08:37 28.10965 108.39507 30189 ft 425 kts 245°
2026-05-07 08:38 28.08319 108.33545 30025 ft 424 kts 245°
2026-05-07 08:38 28.06986 108.30559 29757 ft 425 kts 245°
2026-05-07 08:38 28.05644 108.27569 29492 ft 426 kts 245°
2026-05-07 08:39 28.04299 108.24581 29230 ft 427 kts 245°
2026-05-07 08:39 28.02946 108.21591 28967 ft 427 kts 245°
2026-05-07 08:39 28.01588 108.18592 28713 ft 428 kts 245°
2026-05-07 08:39 28.00230 108.15591 28431 ft 430 kts 244°
2026-05-07 08:40 27.98864 108.12579 28176 ft 430 kts 244°
2026-05-07 08:40 27.97501 108.09574 27930 ft 429 kts 244°
2026-05-07 08:40 27.96142 108.06580 27681 ft 427 kts 244°
2026-05-07 08:40 27.94783 108.03589 27437 ft 425 kts 244°
2026-05-07 08:41 27.93435 108.00626 27187 ft 424 kts 244°
2026-05-07 08:41 27.92105 107.97700 26947 ft 422 kts 245°
2026-05-07 08:41 27.90762 107.94743 26704 ft 420 kts 245°
2026-05-07 08:41 27.89429 107.91807 26467 ft 419 kts 245°
2026-05-07 08:42 27.88096 107.88880 26230 ft 417 kts 245°
2026-05-07 08:42 27.86771 107.85972 25998 ft 415 kts 244°
2026-05-07 08:42 27.85449 107.83078 25762 ft 414 kts 244°
2026-05-07 08:42 27.84133 107.80196 25529 ft 412 kts 245°
2026-05-07 08:43 27.82820 107.77324 25309 ft 411 kts 245°
2026-05-07 08:43 27.81519 107.74458 25083 ft 408 kts 245°
2026-05-07 08:43 27.80243 107.71609 24854 ft 407 kts 245°
2026-05-07 08:43 27.78973 107.68750 24622 ft 407 kts 245°
2026-05-07 08:44 27.77710 107.65897 24402 ft 406 kts 245°
2026-05-07 08:44 27.76446 107.63051 24183 ft 405 kts 245°
2026-05-07 08:44 27.75196 107.60248 23969 ft 404 kts 245°
2026-05-07 08:44 27.73930 107.57417 23754 ft 403 kts 245°
2026-05-07 08:45 27.72673 107.54606 23523 ft 401 kts 245°
2026-05-07 08:45 27.71413 107.51792 23256 ft 400 kts 245°
2026-05-07 08:45 27.70162 107.48991 23071 ft 399 kts 245°
2026-05-07 08:45 27.68912 107.46198 23000 ft 399 kts 245°
2026-05-07 08:46 27.67660 107.43410 22918 ft 398 kts 245°
2026-05-07 08:46 27.66406 107.40620 22842 ft 398 kts 245°
2026-05-07 08:46 27.65154 107.37838 22776 ft 398 kts 245°
2026-05-07 08:46 27.63898 107.35048 22694 ft 398 kts 245°
2026-05-07 08:47 27.62645 107.32264 22622 ft 398 kts 245°
2026-05-07 08:47 27.61393 107.29480 22543 ft 398 kts 245°
2026-05-07 08:47 27.60143 107.26704 22470 ft 397 kts 245°
2026-05-07 08:47 27.58892 107.23932 22392 ft 396 kts 245°
2026-05-07 08:48 27.57641 107.21160 22319 ft 396 kts 245°
2026-05-07 08:48 27.56395 107.18395 22225 ft 395 kts 245°
2026-05-07 08:48 27.55153 107.15634 22199 ft 395 kts 245°
2026-05-07 08:48 27.53912 107.12881 22202 ft 394 kts 245°
2026-05-07 08:49 27.52665 107.10123 22203 ft 394 kts 245°
2026-05-07 08:49 27.51391 107.07387 22201 ft 396 kts 241°
2026-05-07 08:49 27.49770 107.04876 22206 ft 399 kts 231°
2026-05-07 08:49 27.47734 107.02729 22208 ft 403 kts 220°
2026-05-07 08:50 27.45354 107.01038 22211 ft 408 kts 210°
2026-05-07 08:50 27.42700 106.99865 22213 ft 413 kts 199°
2026-05-07 08:50 27.39860 106.99274 22211 ft 419 kts 188°
2026-05-07 08:50 27.36927 106.99273 22216 ft 423 kts 181°
2026-05-07 08:51 27.33982 106.99428 22212 ft 425 kts 181°
2026-05-07 08:51 27.31029 106.99587 22215 ft 424 kts 181°
2026-05-07 08:51 27.28081 106.99746 22215 ft 424 kts 181°
2026-05-07 08:51 27.25126 106.99905 22222 ft 424 kts 181°
2026-05-07 08:52 27.22179 107.00062 22218 ft 424 kts 181°
2026-05-07 08:52 27.19237 107.00218 22215 ft 424 kts 181°
2026-05-07 08:52 27.16288 107.00373 22218 ft 424 kts 181°
2026-05-07 08:52 27.13339 107.00529 22217 ft 424 kts 181°
2026-05-07 08:53 27.10390 107.00685 22217 ft 424 kts 181°
2026-05-07 08:53 27.07446 107.00842 22216 ft 424 kts 181°
2026-05-07 08:53 27.04524 107.00998 22213 ft 424 kts 181°
2026-05-07 08:53 27.01584 107.01155 22214 ft 424 kts 182°
2026-05-07 08:54 26.98629 107.01312 22211 ft 423 kts 182°
2026-05-07 08:54 26.95687 107.01466 22212 ft 424 kts 182°
2026-05-07 08:54 26.92739 107.01619 22211 ft 423 kts 182°
2026-05-07 08:54 26.89794 107.01772 22212 ft 424 kts 182°
2026-05-07 08:55 26.86862 107.01925 22217 ft 424 kts 182°
2026-05-07 08:55 26.83931 107.01794 22214 ft 417 kts 193°
2026-05-07 08:55 26.81143 107.01033 22210 ft 411 kts 204°
2026-05-07 08:55 26.78570 106.99694 22212 ft 405 kts 215°
2026-05-07 08:56 26.76187 106.98018 22212 ft 404 kts 217°
2026-05-07 08:56 26.73853 106.96263 21792 ft 403 kts 218°
2026-05-07 08:56 26.71559 106.94464 20749 ft 412 kts 219°
2026-05-07 08:56 26.69193 106.92574 20008 ft 412 kts 219°
2026-05-07 08:57 26.66892 106.90743 19363 ft 410 kts 219°
2026-05-07 08:57 26.64539 106.88889 18393 ft 417 kts 218°
2026-05-07 08:57 26.62169 106.87044 17277 ft 412 kts 217°
2026-05-07 08:57 26.59836 106.85249 16282 ft 402 kts 217°
2026-05-07 08:58 26.57594 106.83536 16022 ft 375 kts 217°
2026-05-07 08:58 26.55514 106.81950 15874 ft 349 kts 217°
2026-05-07 08:58 26.53574 106.80471 15733 ft 327 kts 217°
2026-05-07 08:58 26.51758 106.79085 15547 ft 308 kts 217°
2026-05-07 08:59 26.49989 106.77768 15059 ft 302 kts 217°
2026-05-07 08:59 26.48243 106.76492 14602 ft 296 kts 217°
2026-05-07 08:59 26.46537 106.75257 14180 ft 290 kts 216°
2026-05-07 08:59 26.44856 106.74046 13743 ft 285 kts 216°
2026-05-07 09:00 26.43206 106.72855 13305 ft 279 kts 217°
2026-05-07 09:00 26.41598 106.71689 12893 ft 273 kts 217°
2026-05-07 09:00 26.40014 106.70539 12505 ft 272 kts 218°
2026-05-07 09:00 26.38463 106.69408 12100 ft 266 kts 216°
2026-05-07 09:01 26.36909 106.68278 11717 ft 260 kts 216°
2026-05-07 09:01 26.35428 106.67202 11338 ft 255 kts 215°
2026-05-07 09:01 26.33780 106.66464 10965 ft 255 kts 188°
2026-05-07 09:01 26.32061 106.66681 10590 ft 253 kts 159°
2026-05-07 09:02 26.30631 106.67783 10167 ft 250 kts 128°
2026-05-07 09:02 26.29856 106.69474 9631 ft 245 kts 99°
2026-05-07 09:02 26.29732 106.71318 9191 ft 233 kts 82°
2026-05-07 09:02 26.30120 106.73011 8764 ft 219 kts 62°
2026-05-07 09:03 26.30907 106.74416 8276 ft 211 kts 43°
2026-05-07 09:03 26.31996 106.75466 7760 ft 203 kts 26°
2026-05-07 09:03 26.33236 106.76086 7469 ft 189 kts 13°
2026-05-07 09:03 26.34477 106.76361 7217 ft 176 kts
2026-05-07 09:04 26.35638 106.76588 7018 ft 163 kts
2026-05-07 09:04 26.36727 106.76800 6817 ft 154 kts
2026-05-07 09:04 26.37771 106.77003 6641 ft 149 kts
2026-05-07 09:04 26.38789 106.77201 6446 ft 148 kts
2026-05-07 09:05 26.39803 106.77398 6259 ft 148 kts 10°
2026-05-07 09:05 26.40826 106.77596 6059 ft 148 kts
2026-05-07 09:05 26.41843 106.77794 5869 ft 148 kts
2026-05-07 09:05 26.42840 106.77988 5676 ft 147 kts
2026-05-07 09:06 26.43852 106.78185 5481 ft 149 kts
2026-05-07 09:06 26.44867 106.78382 5297 ft 148 kts 10°
2026-05-07 09:06 26.45900 106.78583 5079 ft 152 kts 11°
2026-05-07 09:06 26.46914 106.78780 4903 ft 145 kts
2026-05-07 09:07 26.47907 106.78973 4691 ft 146 kts 10°
2026-05-07 09:07 26.48915 106.79169 4501 ft 149 kts 11°
2026-05-07 09:07 26.49931 106.79362 4277 ft 145 kts 11°
2026-05-07 09:07 26.50920 106.79558 4062 ft 145 kts 13°
2026-05-07 09:08 26.51922 106.79753 3871 ft 146 kts 10°
2026-05-07 09:08 26.52918 106.79946 3735 ft 141 kts 10°
2026-05-07 09:08 26.53780 106.80110 3715 ft 105 kts
2026-05-07 09:08 26.54329 106.80216 3716 ft 55 kts 10°
2026-05-07 09:09 26.54556 106.80260 3719 ft 22 kts
2026-05-07 09:09 26.54734 106.80250 3719 ft 33 kts 312°
2026-05-07 09:09 26.54746 106.80060 3716 ft 20 kts 208°
2026-05-07 09:09 26.54637 106.80085 3716 ft 16 kts 178°
2026-05-07 09:10 26.54537 106.80071 3719 ft 13 kts 190°
2026-05-07 09:10 26.54496 106.80003 3713 ft 11 kts 271°
2026-05-07 09:10 26.54507 106.79929 3716 ft 9 kts 280°
2026-05-07 09:10 26.54498 106.79875 3722 ft 6 kts 223°
2026-05-07 09:11 26.54464 106.79852 3718 ft 5 kts 207°
2026-05-07 09:11 26.54444 106.79858 3718 ft 2 kts 156°
2026-05-07 09:11 26.54436 106.79865 3716 ft 1 kts 139°
2026-05-07 09:11 26.54437 106.79874 3723 ft 0 kts 84°